Yuma, AZ

7:27 PM MST on February 24, 2017 (GMT -0700)
Yuma Marine Corps Air Station

Weather History for KNYL - October, 2011

Change the Weather History Date:

Wednesday, October 19, 2011

  Actual Average Record
Temperature  
Mean Temperature 83 °F 76 °F  
Max Temperature 99 °F 89 °F 105 °F (2003)
Min Temperature 67 °F 64 °F 38 °F (1908)
Degree Days  
Heating Degree Days 0 0  
Month to date heating degree days 0 0  
Since 1 July heating degree days 0 0  
Cooling Degree Days 18 11  
Month to date cooling degree days 303 280  
Year to date cooling degree days 4516 4454  
Growing Degree Days 32 (Base 50)    
Moisture  
Dew Point 32 °F    
Average Humidity 21    
Maximum Humidity 35    
Minimum Humidity 7    
Precipitation  
Precipitation 0.00 in 0.00 in 0.69 in (1886)
Month to date precipitation 0.01 0.14  
Year to date precipitation 1.42 2.76  
Sea Level Pressure  
Sea Level Pressure 29.79 in    
Wind  
Wind Speed 3 mph (NNE)    
Max Wind Speed 13 mph    
Max Gust Speed 16 mph    
Visibility 10 miles    
Events      
T = Trace of Precipitation, MM = Missing Value Source: NWS Daily Summary

Daily Weather History Graph

Daily Weather History Graph

Search for Another Location

Airport or City:

Trip Planner

Search our weather history database for the weather conditions in past years. The results will help you decide how hot, cold, wet, or windy it might be!

Date:

Astronomy

Oct. 19, 2011 Rise Set
Actual Time 6:45 AM MST 6:01 PM MST
Civil Twilight 6:20 AM MST 6:25 PM MST
Nautical Twilight 5:51 AM MST 6:54 PM MST
Astronomical Twilight 5:23 AM MST 7:23 PM MST
Moon 11:58 PM MST (10/19) 1:10 PM MST (10/19)
Length of Visible Light 12h 05m
Length of Day
11h 15m
Waning Gibbous, 54% of the Moon is Illuminated
Oct 19
Waning Gibbous
Oct 19
Last Quarter
Oct 26
New
Nov 2
First Quarter
Nov 10
Full

Hourly Weather History & Observations

Time (MST) Temp. Dew Point Humidity Pressure Visibility Wind Dir Wind Speed Gust Speed Precip Events Conditions
12:55 AM 73.9 °F 37.9 °F 27% 29.81 in 10.0 mi Calm Calm - N/A   Clear
1:55 AM 71.1 °F 37.0 °F 29% 29.81 in 10.0 mi West 3.5 mph - N/A   Clear
2:55 AM 71.1 °F 36.0 °F 28% 29.80 in 10.0 mi Calm Calm - N/A   Clear
3:55 AM 68.0 °F 39.0 °F 35% 29.80 in 10.0 mi Calm Calm - N/A   Clear
4:55 AM 71.1 °F 35.1 °F 27% 29.80 in 10.0 mi NE 3.5 mph - N/A   Clear
5:55 AM 68.0 °F 33.1 °F 27% 29.81 in 10.0 mi North 3.5 mph - N/A   Clear
6:55 AM 70.0 °F 32.0 °F 25% 29.81 in 10.0 mi NNE 5.8 mph - N/A   Clear
7:55 AM 73.0 °F 30.9 °F 21% 29.83 in 10.0 mi NNE 5.8 mph - N/A   Clear
8:55 AM 79.0 °F 28.0 °F 15% 29.84 in 10.0 mi NNE 6.9 mph - N/A   Clear
9:55 AM 84.9 °F 32.0 °F 15% 29.84 in 8.0 mi NNE 8.1 mph - N/A   Clear
10:55 AM 90.0 °F 27.0 °F 10% 29.83 in 10.0 mi NNE 9.2 mph - N/A   Clear
11:55 AM 93.0 °F 26.1 °F 9% 29.81 in 10.0 mi NE 8.1 mph - N/A   Clear
12:55 PM 95.0 °F 26.1 °F 9% 29.79 in 10.0 mi NNE 8.1 mph - N/A   Clear
1:55 PM 97.0 °F 26.1 °F 8% 29.75 in 10.0 mi East 5.8 mph - N/A   Clear
2:55 PM 97.0 °F 27.0 °F 8% 29.74 in 10.0 mi Calm Calm - N/A   Clear
3:55 PM 97.0 °F 25.0 °F 8% 29.73 in 10.0 mi Variable 3.5 mph - N/A   Clear
4:55 PM 96.1 °F 23.0 °F 7% 29.72 in 10.0 mi Calm Calm - N/A   Clear
5:55 PM 93.0 °F 26.1 °F 9% 29.73 in 10.0 mi WSW 3.5 mph - N/A   Clear
6:55 PM 87.1 °F 32.0 °F 14% 29.74 in 10.0 mi WSW 3.5 mph - N/A   Clear
7:55 PM 84.0 °F 35.1 °F 17% 29.75 in 10.0 mi Calm Calm - N/A   Clear
8:55 PM 82.0 °F 37.0 °F 20% 29.76 in 10.0 mi Calm Calm - N/A   Clear
9:55 PM 79.0 °F 35.1 °F 20% 29.77 in 10.0 mi Calm Calm - N/A   Clear
10:55 PM 75.9 °F 35.1 °F 23% 29.78 in 10.0 mi Calm Calm - N/A   Clear
11:55 PM 71.1 °F 43.0 °F 36% 29.79 in 10.0 mi Calm Calm - N/A   Clear